This demonstration page uses our WeatherBlox Daily Observations layout. Learn more.

Left ArrowRight Arrow

44.8408, -93.29828

Hourly Observations for April 18, 2022

Temp ( °F °C ) Dew Point ( °F °C ) Humidity (%) Winds ( mph kmh ) Pressure ( in mb ) Visibility ( mi km ) Precip ( " mm )
12:33 am 00:33 Cloudy with Light Snow 34 1.1 30 -1.1 85 85 SSW 9 15 30.15 1021 10 16 0.00 0.00
12:53 am 00:53 Cloudy with Light Snow 34 1.1 30 -1.1 85 85 SSW 10 17 30.12 1020 9 14 0.00 0.00
1:05 am 01:05 Cloudy with Light Snow 34 1.1 30 -1.1 85 85 SSW 10 17 30.13 1020 9 14 0.00 0.00
1:53 am 01:53 Cloudy 35 1.7 30 -1.1 82 82 SW 15 24 30.09 1019 9 14 0.00 0.00
2:46 am 02:46 Cloudy 34 1.1 29 -1.7 82 82 W 15 24 30.10 1019 10 16 0.00 0.00
2:53 am 02:53 Cloudy 34 1.1 29 -1.7 82 82 W 14 22 30.08 1019 10 16 0.00 0.00
3:25 am 03:25 Cloudy 32 0 23 -5 69 69 W 21 33 30.11 1019 10 16 0.00 0.00
3:53 am 03:53 Mostly Cloudy 31 -0.6 22 -5.6 69 69 W 20 31 30.09 1019 10 16 0.00 0.00
4:12 am 04:12 Mostly Cloudy 31 -0.6 22 -5.6 69 69 W 14 22 30.11 1020 10 16 0.00 0.00
4:53 am 04:53 Cloudy 30 -1.1 22 -5.6 72 72 W 17 28 30.08 1019 10 16 0.00 0.00
5:53 am 05:53 Cloudy 29 -1.7 22 -5.6 75 75 W 13 20 30.08 1019 10 16 0.00 0.00
6:53 am 06:53 Cloudy 30 -1.1 23 -5 75 75 WSW 16 26 30.06 1018 10 16 0.00 0.00
7:13 am 07:13 Cloudy with Light Snow 30 -1.1 24 -4.4 79 79 W 14 22 30.08 1019 10 16 0.00 0.00
7:26 am 07:26 Cloudy with Light Snow 30 -1.1 24 -4.4 79 79 W 17 28 30.08 1019 5 8 0.00 0.00
7:41 am 07:41 Cloudy with Light Snow 31 -0.6 25 -3.9 79 79 W 16 26 30.08 1019 4 6 0.00 0.00
7:53 am 07:53 Windy with Snow Likely 31 -0.6 25 -3.9 79 79 W 20 31 30.05 1018 3 5 0.00 0.00
8:00 am 08:00 Windy with Snow Likely 31 -0.6 25 -3.9 79 79 W 20 31 30.07 1018 5 8 0.00 0.00
8:05 am 08:05 Cloudy with Light Snow 31 -0.6 25 -3.9 79 79 W 18 30 30.07 1018 8 13 0.01 0.25
8:11 am 08:11 Cloudy 31 -0.6 25 -3.9 79 79 W 22 35 30.08 1019 10 16 0.01 0.25
8:27 am 08:27 Cloudy 32 0 25 -3.9 75 75 WNW 17 28 30.07 1018 10 16 0.01 0.25
8:53 am 08:53 Cloudy 32 0 25 -3.9 75 75 W 16 26 30.06 1018 10 16 0.01 0.25
9:31 am 09:31 Windy with Snow Likely 33 0.6 25 -3.9 72 72 WNW 22 35 30.08 1019 9 14 0.00 0.00
9:53 am 09:53 Cloudy with Light Snow 33 0.6 25 -3.9 72 72 WNW 18 30 30.08 1019 7 11 0.00 0.00
10:13 am 10:13 Cloudy 34 1.1 26 -3.3 73 73 WNW 15 24 30.10 1019 9 14 0.00 0.00
10:53 am 10:53 Windy with Snow Likely 34 1.1 25 -3.9 70 70 NW 26 43 30.11 1020 6 10 0.00 0.00
11:04 am 11:04 Windy with Snow Likely 34 1.1 26 -3.3 73 73 NW 21 33 30.13 1020 3 5 0.00 0.00
11:27 am 11:27 Windy with Snow Likely 34 1.1 26 -3.3 73 73 WNW 22 35 30.14 1021 7 11 0.00 0.00
11:53 am 11:53 Cloudy 35 1.7 25 -3.9 67 67 NW 22 35 30.13 1020 10 16 0.00 0.00
12:53 pm 12:53 Cloudy 36 2.2 25 -3.9 64 64 NW 23 37 30.14 1021 10 16 0.00 0.00
1:53 pm 13:53 Cloudy 35 1.7 24 -4.4 64 64 NW 25 41 30.16 1021 10 16 0.00 0.00
2:53 pm 14:53 Cloudy 35 1.7 23 -5 61 61 NW 28 44 30.18 1022 10 16 0.00 0.00
3:01 pm 15:01 Cloudy 36 2.2 23 -5 59 59 NW 25 41 30.20 1023 10 16 0.00 0.00
3:53 pm 15:53 Cloudy 37 2.8 23 -5 57 57 NW 23 37 30.19 1023 10 16 0.00 0.00
4:53 pm 16:53 Cloudy 37 2.8 22 -5.6 54 54 NW 24 39 30.22 1023 10 16 0.00 0.00
5:53 pm 17:53 Cloudy 37 2.8 22 -5.6 54 54 NNW 18 30 30.24 1024 10 16 0.00 0.00
6:53 pm 18:53 Mostly Cloudy 37 2.8 21 -6.1 52 52 NNW 14 22 30.25 1024 10 16 0.00 0.00
7:53 pm 19:53 Mostly Cloudy 37 2.8 19 -7.2 48 48 NNW 13 20 30.27 1025 10 16 0.00 0.00
8:53 pm 20:53 Cloudy 36 2.2 18 -7.8 48 48 NNW 16 26 30.29 1026 10 16 0.00 0.00
9:53 pm 21:53 Mostly Cloudy 35 1.7 17 -8.3 48 48 NNW 17 28 30.30 1026 10 16 0.00 0.00
10:53 pm 22:53 Mostly Clear 33 0.6 19 -7.2 56 56 NW 10 17 30.31 1027 10 16 0.00 0.00
11:53 pm 23:53 Mostly Clear 32 0 19 -7.2 59 59 NNW 10 17 30.31 1026 10 16 0.00 0.00

Powered by AerisWeather